Regional Weather Roundup
Issued by NWS

Home | Current Version | Previous Version | Graphics & Text | Print | Product List | Glossary On
Versions: 1 2 3 4 5 6 7 8 9 10 11 12 13 14 15 16 17 18 19 20 21 22 23 24 25 26 27 28 29 30 31 32 33 34 35 36 37 38 39 40 41 42 43 44 45 46 47 48 49 50
000
ASUS43 KLOT 311400
RWRIL

ILLINOIS REGIONAL WEATHER ROUNDUP
NATIONAL WEATHER SERVICE CHICAGO/ROMEOVILLE IL
900 AM CDT THU JUL 31 2014

NOTE: "FAIR" INDICATES FEW OR NO CLOUDS BELOW 12,000 FEET WITH NO
SIGNIFICANT WEATHER AND/OR OBSTRUCTIONS TO VISIBILITY.

* THESE STATIONS ARE NOT UNDER NWS QUALITY CONTROL. THEY ALSO MAY NOT
  REPORT WEATHER SUCH AS PRECIPITATION OR FOG.

ILZ001-002-007-009-015-016-024-311500-
NORTHWEST ILLINOIS

CITY           SKY/WX    TMP DP  RH WIND       PRES   REMARKS
MOLINE         SUNNY     69  61  75 W6        30.08R
STERLING*      SUNNY     70  63  78 NW7       30.07S
$$

ILZ003-004-008-010-011-017-018-311500-
NORTH CENTRAL ILLINOIS

CITY           SKY/WX    TMP DP  RH WIND       PRES   REMARKS
ROCKFORD       SUNNY     70  60  70 CALM      30.06S
$$

ILZ005-006-012>014-019>023-311500-
NORTHEAST ILLINOIS

CITY           SKY/WX    TMP DP  RH WIND       PRES   REMARKS
CHICAGO-OHARE  MOSUNNY   71  54  54 W9        30.03S
CHICAGO-MIDWAY MOSUNNY   73  56  54 SW13      30.04S
AURORA         SUNNY     69  59  70 W8        30.05S
LANSING*       SUNNY     70  57  64 W8        30.05S
WAUKEGAN       SUNNY     69  58  67 SW6       30.02S
DUPAGE AIRPORT SUNNY     70  58  65 SW12      30.04S
WHEELING       SUNNY     71  58  63 W7        30.04F
NORTHERLY ISL    N/A     71  55  56 W7          N/A
$$

LMZ740>746-311500-
SOUTHERN LAKE MICHIGAN

STATION/POSITION SKY/WX   TEMP    WIND        PRES    VSBY  WAVE
                          AIR SEA DIR/SP/G                  HT/PER
                          (F)     (DEG/KT/KT) (MB)    (MI)  (FT/S)
SOUTHERN BUOY              62 60  240/ 10/ 10 1016.1R         1/ 3
WAUKEGAN HARBOR            67     260/ 10/ 12   N/A
HARRISON CRIB              68     260/ 12/ 13   N/A
BURNHAM HARBOR             71     260/  7/  8   N/A
CALUMET HARBOR             68     210/  4/  5 1016.0S
MICHIGAN CITY              65     180/ 10/ 12   N/A
MICHIGAN CITY 6N           67 69  210/  8/ 10   N/A           1/ 3
ST. JOSEPH                 67 68  200/ 12/ 14   N/A           2/ 3
$$

ILZ025>027-034>036-040-047-049-050-058-095>099-311500-
WEST-CENTRAL ILLINOIS

CITY           SKY/WX    TMP DP  RH WIND       PRES   REMARKS
QUINCY         SUNNY     70  64  81 N3        30.11R
GALESBURG*     SUNNY     70  64  80 W3        30.09S
MACOMB*        SUNNY     69  64  84 CALM      30.12R
$$

ILZ028>032-037-038-041>044-048-051>054-059>061-311500-
CENTRAL ILLINOIS

CITY           SKY/WX    TMP DP  RH WIND       PRES   REMARKS
DECATUR        SUNNY     69  62  78 SW5       30.10S
PEORIA         SUNNY     72  61  68 CALM      30.09R
SPRINGFIELD    SUNNY     70  62  76 SW3       30.10S
TAYLORVILLE    NOT AVBL
$$

ILZ033-039-045-046-055>057-062-063-311500-
EAST-CENTRAL ILLINOIS

CITY           SKY/WX    TMP DP  RH WIND       PRES   REMARKS
CHAMPAIGN      SUNNY     68  64  87 SW3       30.10R
MATTOON        SUNNY     72  62  71 SW5       30.10R
$$

ILZ079-100>102-311500-
SOUTHWEST ILLINOIS

CITY           SKY/WX    TMP DP  RH WIND       PRES   REMARKS
ALTON          MOSUNNY   70  68  94 VRB3      30.10S
CAHOKIA*       SUNNY     73  65  75 CALM      30.10R
SPARTA*        SUNNY     68  64  88 CALM      30.11S
$$

ILZ064>066-069>071-074>076-080>082-084>086-088>090-092>094-311500-
SOUTH-CENTRAL ILLINOIS

CITY           SKY/WX    TMP DP  RH WIND       PRES   REMARKS
CARBONDALE     PTSUNNY   71  64  78 SW3       30.11R
MARION         SUNNY     72  64  78 MISG      30.11F
MT. VERNON     SUNNY     70  63  78 S3        30.12R
SALEM*         SUNNY    N/A N/A N/A CALM      30.11R
$$

ILZ067-068-072-073-078-083-087-091-311500-
SOUTHEAST ILLINOIS

CITY           SKY/WX    TMP DP  RH WIND       PRES   REMARKS
LAWRENCEVILLE  SUNNY     71  64  78 CALM      30.11R
HARRISBURG*    SUNNY     67  67 100 SW3       30.12S
ROBINSON*      SUNNY     72  66  81 CALM      30.11S
$$

ABBREVIATIONS USED IN REMARKS
   TC - TEMPERATURE IN CELSIUS
  WCI - WIND CHILL INDEX
   HX - HEAT INDEX
  VSB - VISIBILITY
$$



USA.gov is the U.S. government's official web portal to all federal, state and local government web resources and services.